• In Lithuania
  • List of Countries
  • For 7 days
  • Water Temperature
  • Satellite Maps
  • Weather Map
  • Weather Widgets
  • user-avatar
    Login

    Hourly Weather Krynka

    Today, 23 October, Tuesday

    Time Temperature Precipitation Wind Pressure Humidity
    00:00 +5°C° 0 mm 3 mps 752 mmHg 88%
    01:00 +4°C° 0 mm 3 mps 752 mmHg 90%
    02:00 +4°C° 0 mm 3 mps 752 mmHg 89%
    03:00 +4°C° 0 mm 3 mps 751 mmHg 88%
    04:00 +4°C° 0 mm 3 mps 751 mmHg 87%
    05:00 +4°C° 0 mm 3 mps 750 mmHg 85%
    06:00 +4°C° 0 mm 3 mps 749 mmHg 83%
    07:00 +4°C° 0 mm 4 mps 749 mmHg 81%
    08:00 +6°C° 0 mm 5 mps 748 mmHg 74%
    09:00 +7°C° 0 mm 6 mps 747 mmHg 68%
    10:00 +8°C° 0 mm 7 mps 747 mmHg 61%
    11:00 +7°C° 0.5 mm 8 mps 746 mmHg 62%
    12:00 +7°C° 0.5 mm 8 mps 745 mmHg 64%
    13:00 +7°C° 0.5 mm 9 mps 744 mmHg 65%
    14:00 +7°C° 0.4 mm 9 mps 743 mmHg 68%
    15:00 +7°C° 0.4 mm 9 mps 742 mmHg 71%
    16:00 +8°C° 0.4 mm 10 mps 741 mmHg 73%
    17:00 +8°C° 0.3 mm 10 mps 741 mmHg 75%
    18:00 +8°C° 0.3 mm 10 mps 740 mmHg 76%
    19:00 +9°C° 0.3 mm 10 mps 740 mmHg 77%
    20:00 +9°C° 0.5 mm 10 mps 739 mmHg 77%
    21:00 +9°C° 0.5 mm 10 mps 738 mmHg 78%
    22:00 +11°C° 0.5 mm 11 mps 737 mmHg 78%
    23:00 +11°C° 0.7 mm 11 mps 737 mmHg 79%

    Tomorrow, 24 October, Wednesday

    Time Temperature Precipitation Wind Pressure Humidity
    00:00 +11°C° 0.7 mm 11 mps 736 mmHg 79%
    01:00 +11°C° 0.7 mm 11 mps 735 mmHg 80%
    02:00 +11°C° 1.1 mm 11 mps 735 mmHg 79%
    03:00 +11°C° 1.1 mm 11 mps 734 mmHg 79%
    04:00 +9°C° 1.1 mm 11 mps 734 mmHg 78%
    05:00 +8°C° 0.4 mm 11 mps 735 mmHg 75%
    06:00 +7°C° 0.4 mm 10 mps 736 mmHg 72%
    07:00 +5°C° 0.4 mm 10 mps 737 mmHg 68%
    08:00 +5°C° 0.1 mm 10 mps 737 mmHg 66%
    09:00 +6°C° 0.1 mm 10 mps 738 mmHg 63%
    10:00 +6°C° 0.1 mm 11 mps 739 mmHg 60%
    11:00 +6°C° 0.2 mm 11 mps 739 mmHg 58%
    12:00 +6°C° 0.2 mm 11 mps 740 mmHg 56%
    13:00 +7°C° 0.2 mm 11 mps 740 mmHg 54%
    14:00 +6°C° 0 mm 10 mps 741 mmHg 53%
    15:00 +6°C° 0 mm 9 mps 741 mmHg 51%
    16:00 +6°C° 0 mm 8 mps 742 mmHg 50%
    17:00 +5°C° 0 mm 7 mps 743 mmHg 53%
    18:00 +4°C° 0 mm 7 mps 743 mmHg 57%
    19:00 +4°C° 0 mm 6 mps 744 mmHg 60%
    20:00 +4°C° 0 mm 6 mps 744 mmHg 62%
    21:00 +3°C° 0 mm 6 mps 745 mmHg 63%
    22:00 +3°C° 0 mm 6 mps 745 mmHg 65%
    23:00 +3°C° 0 mm 5 mps 745 mmHg 68%

    Day after tomorrow, 25 October, Thursday

    Time Temperature Precipitation Wind Pressure Humidity
    00:00 +2°C° 0 mm 5 mps 745 mmHg 70%
    01:00 +2°C° 0 mm 5 mps 745 mmHg 73%
    02:00 +3°C° 0 mm 4 mps 744 mmHg 75%
    03:00 +3°C° 0 mm 4 mps 744 mmHg 77%
    04:00 +3°C° 0 mm 4 mps 744 mmHg 79%
    05:00 +4°C° 0.4 mm 4 mps 743 mmHg 81%
    06:00 +5°C° 0.4 mm 5 mps 742 mmHg 83%
    07:00 +6°C° 0.4 mm 5 mps 741 mmHg 85%
    08:00 +7°C° 0.2 mm 6 mps 741 mmHg 82%
    09:00 +9°C° 0.2 mm 7 mps 740 mmHg 79%
    10:00 +11°C° 0.2 mm 9 mps 740 mmHg 77%
    11:00 +11°C° 0.1 mm 9 mps 740 mmHg 75%
    12:00 +11°C° 0.1 mm 9 mps 740 mmHg 74%
    13:00 +11°C° 0.1 mm 9 mps 739 mmHg 73%
    14:00 +11°C° 0.1 mm 9 mps 740 mmHg 74%
    15:00 +10°C° 0.1 mm 8 mps 740 mmHg 75%
    16:00 +10°C° 0.1 mm 7 mps 740 mmHg 76%
    17:00 +9°C° 0.2 mm 7 mps 740 mmHg 78%
    18:00 +9°C° 0.2 mm 6 mps 741 mmHg 79%
    19:00 +9°C° 0.2 mm 5 mps 741 mmHg 81%
    20:00 +8°C° 0.1 mm 5 mps 741 mmHg 81%
    21:00 +8°C° 0.1 mm 4 mps 742 mmHg 81%
    22:00 +7°C° 0.1 mm 4 mps 742 mmHg 81%
    23:00 +7°C° 0 mm 4 mps 742 mmHg 83%

    26 October, Friday

    Time Temperature Precipitation Wind Pressure Humidity
    00:00 +7°C° 0 mm 3 mps 742 mmHg 84%
    01:00 +7°C° 0 mm 3 mps 742 mmHg 86%
    02:00 +7°C° 0 mm 3 mps 742 mmHg 86%
    03:00 +7°C° 0 mm 3 mps 742 mmHg 86%
    04:00 +7°C° 0 mm 2 mps 742 mmHg 87%
    05:00 +7°C° 0 mm 2 mps 741 mmHg 88%
    06:00 +7°C° 0 mm 2 mps 741 mmHg 89%
    07:00 +8°C° 0 mm 2 mps 741 mmHg 90%
    08:00 +9°C° 0 mm 2 mps 741 mmHg 85%
    09:00 +10°C° 0 mm 3 mps 741 mmHg 80%
    10:00 +11°C° 0 mm 3 mps 741 mmHg 75%
    11:00 +12°C° 0 mm 3 mps 740 mmHg 71%
    12:00 +13°C° 0 mm 3 mps 740 mmHg 68%
    13:00 +14°C° 0 mm 4 mps 740 mmHg 65%
    14:00 +13°C° 0 mm 3 mps 739 mmHg 67%
    15:00 +13°C° 0 mm 3 mps 738 mmHg 69%
    16:00 +12°C° 0 mm 3 mps 738 mmHg 72%
    17:00 +12°C° 0 mm 3 mps 737 mmHg 74%
    18:00 +11°C° 0 mm 4 mps 737 mmHg 76%
    19:00 +10°C° 0 mm 4 mps 737 mmHg 78%
    20:00 +11°C° 0 mm 4 mps 737 mmHg 78%
    21:00 +11°C° 0 mm 4 mps 736 mmHg 78%
    22:00 +11°C° 0 mm 4 mps 736 mmHg 79%
    23:00 +10°C° 0 mm 4 mps 736 mmHg 80%

    27 October, Saturday

    Time Temperature Precipitation Wind Pressure Humidity
    00:00 +10°C° 0 mm 3 mps 736 mmHg 81%
    01:00 +10°C° 0 mm 3 mps 735 mmHg 82%
    02:00 +10°C° 0 mm 3 mps 735 mmHg 83%
    03:00 +9°C° 0 mm 3 mps 735 mmHg 84%
    04:00 +9°C° 0 mm 3 mps 735 mmHg 85%
    05:00 +9°C° 0.1 mm 3 mps 735 mmHg 85%
    06:00 +9°C° 0.1 mm 3 mps 735 mmHg 85%
    07:00 +8°C° 0.1 mm 3 mps 735 mmHg 85%
    08:00 +9°C° 0.3 mm 3 mps 736 mmHg 82%
    09:00 +9°C° 0.3 mm 3 mps 736 mmHg 79%
    10:00 +9°C° 0.3 mm 3 mps 736 mmHg 77%
    11:00 +9°C° 0.2 mm 3 mps 736 mmHg 74%
    12:00 +9°C° 0.2 mm 3 mps 736 mmHg 71%
    13:00 +9°C° 0.2 mm 3 mps 736 mmHg 69%
    14:00 +9°C° 0.1 mm 3 mps 736 mmHg 69%
    15:00 +9°C° 0.1 mm 2 mps 736 mmHg 69%
    16:00 +8°C° 0.1 mm 2 mps 736 mmHg 69%
    17:00 +9°C° 0 mm 1 mps 736 mmHg 71%
    18:00 +8°C° 0 mm 1 mps 736 mmHg 72%
    19:00 +8°C° 0 mm 1 mps 736 mmHg 74%
    20:00 +8°C° 0.1 mm 1 mps 736 mmHg 75%
    21:00 +7°C° 0.1 mm 1 mps 736 mmHg 76%
    22:00 +7°C° 0.1 mm 1 mps 735 mmHg 77%
    23:00 +6°C° 0.2 mm 2 mps 735 mmHg 78%

    28 October, Sunday

    Time Temperature Precipitation Wind Pressure Humidity
    00:00 +6°C° 0.2 mm 2 mps 735 mmHg 79%
    01:00 +5°C° 0.2 mm 2 mps 735 mmHg 80%
    02:00 +5°C° 0.3 mm 2 mps 735 mmHg 80%
    03:00 +5°C° 0.3 mm 2 mps 734 mmHg 81%
    04:00 +5°C° 0.3 mm 2 mps 734 mmHg 81%
    05:00 +5°C° 0.2 mm 2 mps 734 mmHg 82%
    06:00 +5°C° 0.2 mm 2 mps 734 mmHg 82%
    07:00 +5°C° 0.2 mm 2 mps 734 mmHg 83%
    08:00 +5°C° 0.2 mm 2 mps 735 mmHg 79%
    09:00 +5°C° 0.2 mm 2 mps 735 mmHg 75%
    10:00 +5°C° 0.2 mm 3 mps 736 mmHg 72%
    11:00 +5°C° 0.1 mm 3 mps 737 mmHg 68%
    12:00 +7°C° 0.1 mm 3 mps 737 mmHg 64%
    13:00 +7°C° 0.1 mm 3 mps 738 mmHg 60%
    14:00 +7°C° 0 mm 2 mps 738 mmHg 63%
    15:00 +7°C° 0 mm 2 mps 739 mmHg 65%
    16:00 +6°C° 0 mm 2 mps 739 mmHg 68%
    17:00 +5°C° 0 mm 2 mps 740 mmHg 73%
    18:00 +4°C° 0 mm 2 mps 740 mmHg 77%
    19:00 +3°C° 0 mm 3 mps 741 mmHg 82%
    20:00 +3°C° 0 mm 2 mps 741 mmHg 84%
    21:00 +3°C° 0 mm 2 mps 742 mmHg 85%
    22:00 +2°C° 0 mm 2 mps 742 mmHg 87%
    23:00 +2°C° 0 mm 2 mps 742 mmHg 87%

    29 October, Monday

    Time Temperature Precipitation Wind Pressure Humidity
    00:00 +2°C° 0 mm 2 mps 743 mmHg 87%
    01:00 +2°C° 0 mm 2 mps 743 mmHg 87%
    02:00 +2°C° 0 mm 2 mps 743 mmHg 87%
    03:00 +2°C° 0 mm 2 mps 743 mmHg 86%
    04:00 +2°C° 0 mm 2 mps 743 mmHg 85%
    05:00 +3°C° 0 mm 1 mps 743 mmHg 85%
    06:00 +3°C° 0 mm 1 mps 743 mmHg 85%
    07:00 +3°C° 0 mm 1 mps 744 mmHg 84%
    08:00 +4°C° 0 mm 1 mps 744 mmHg 79%
    09:00 +5°C° 0 mm 1 mps 744 mmHg 73%
    10:00 +6°C° 0 mm 1 mps 744 mmHg 67%
    11:00 +7°C° 0 mm 1 mps 744 mmHg 66%
    12:00 +6°C° 0 mm 2 mps 744 mmHg 64%
    13:00 +6°C° 0 mm 2 mps 744 mmHg 63%
    14:00 +6°C° 0 mm 2 mps 743 mmHg 66%
    15:00 +6°C° 0 mm 2 mps 743 mmHg 69%
    16:00 +5°C° 0 mm 2 mps 743 mmHg 72%
    17:00 +5°C° 0 mm 2 mps 743 mmHg 73%
    18:00 +5°C° 0 mm 2 mps 743 mmHg 75%
    19:00 +3°C° 0 mm 3 mps 743 mmHg 76%
    20:00 +3°C° 0.1 mm 3 mps 742 mmHg 77%
    21:00 +3°C° 0.1 mm 3 mps 742 mmHg 79%
    22:00 +3°C° 0.1 mm 3 mps 742 mmHg 80%
    23:00 +3°C° 0.1 mm 4 mps 741 mmHg 81%
    Show more